Stations météo

réclame
Mon MeteoGroup
Leutkirch-Herlazhofen, Allemagne (10945): Température de l'air & dewpoint: 13.06.2018 22:00:00 - 19.06.2018 22:00:00 (CEST)Leutkirch-Herlazhofen, Allemagne (10945): Température de l'air 5cm & Température de l'air -5cm: 13.06.2018 22:00:00 - 19.06.2018 22:00:00 (CEST)Leutkirch-Herlazhofen, Allemagne (10945): Température de l'air -20cm & Température de l'air -100cm: 13.06.2018 22:00:00 - 19.06.2018 22:00:00 (CEST)Leutkirch-Herlazhofen, Allemagne (10945): Vitesse du vent & gusts: 13.06.2018 22:00:00 - 19.06.2018 22:00:00 (CEST)Leutkirch-Herlazhofen, Allemagne (10945): Direction du vent: 13.06.2018 22:00:00 - 19.06.2018 22:00:00 (CEST)Leutkirch-Herlazhofen, Allemagne (10945): reduced air pressure: 13.06.2018 22:00:00 - 19.06.2018 22:00:00 (CEST)Leutkirch-Herlazhofen, Allemagne (10945): visibility: 13.06.2018 22:00:00 - 19.06.2018 22:00:00 (CEST)Leutkirch-Herlazhofen, Allemagne (10945): Ensoleillement: 13.06.2018 22:00:00 - 19.06.2018 22:00:00 (CEST)Leutkirch-Herlazhofen, Allemagne (10945): Quantités de précipitations: 13.06.2018 22:00:00 - 19.06.2018 22:00:00 (CEST)
Date & Time tt [°C] td [°C] tt 5cm [°C] tt -5cm [°C] tt -20cm [°C] tt -100cm [°C] ff [km/h] ff [knt] fx [km/h] fx [knt] dd ppp [hPa] vv [km] sd [min] rr [mm]
19.06.2018 22:00:00 16,4 13,5 13,1 23,9 23,6 16,2 3 2 7 4 ENE 1023,3 18 15 0,0
19.06.2018 21:00:00 20,9 12,4 17,7 25,5 23,6 16,2 4 2 11 6 NE 1021,9 70 60 0,0
19.06.2018 20:00:00 22,4 11,9 23,1 27,3 23,6 16,2 7 4 14 8 NE 1021,6 43 60 0,0
19.06.2018 19:00:00 23,1 12,7 24,9 28,8 23,3 16,2 8 4 17 9 ENE 1021,5 47 55 0,0
19.06.2018 18:00:00 23,2 11,8 26,6 30,3 22,9 16,2 7 4 16 9 NNE 1021,6 40 58 0,0
19.06.2018 17:00:00 22,9 12,0 26,7 31,0 22,4 16,2 8 4 16 8 NNE 1021,9 70 53 0,0
19.06.2018 16:00:00 22,6 11,8 27,2 30,7 21,8 16,2 8 4 15 8 NNE 1022,3 43 30 0,0
19.06.2018 15:00:00 22,4 11,9 28,6 31,6 21,1 16,2 10 5 19 10 NNE 1022,6 20 57 0,0
19.06.2018 14:00:00 22,1 10,9 27,9 29,9 20,4 16,2 6 3 17 9 W 1023,1 42 56 0,0
19.06.2018 13:00:00 21,4 12,2 25,5 28,6 19,8 16,2 9 5 16 9 W 1023,2 28 55 0,0
19.06.2018 12:00:00 20,2 11,6 24,5 25,5 19,4 16,2 11 6 18 10 WNW 1023,8 27 41 0,0
19.06.2018 11:00:00 20,1 11,6 25,8 23,6 19,1 16,2 6 3 13 7 N 1024,0 24 57 0,0
19.06.2018 10:00:00 18,6 10,2 23,2 20,7 19,0 16,2 4 2 15 8 N 1024,8 65 60 0,0
19.06.2018 09:00:00 17,5 12,1 19,1 18,4 19,1 16,2 3 1 6 3 WSW 1024,9 33 20 0,0
19.06.2018 08:00:00 14,9 11,9 15,7 17,3 19,3 16,2 3 2 6 4 S 1025,4 26 0 0,0
19.06.2018 07:00:00 13,4 12,4 13,2 16,6 19,6 16,1 4 2 6 4 SSE 1025,4 17 0 0,0
19.06.2018 06:00:00 11,5 11,0 11,3 16,4 19,9 16,1 0 0 6 3 N 1025,8 16 0 0,0
19.06.2018 05:00:00 10,3 10,2 9,0 16,7 20,2 16,1 0 0 5 3 N 1026,0 9 0 0,0
19.06.2018 04:00:00 11,3 10,7 8,7 17,4 20,6 16,1 4 2 6 3 SSW 1025,2 8 0 0,0
19.06.2018 03:00:00 11,9 10,9 10,4 18,2 20,9 16,1 4 2 6 4 ESE 1024,9 18 0 0,0
19.06.2018 02:00:00 14,6 11,4 11,1 19,2 21,1 16,1 5 3 7 4 ENE 1024,0 28 0 0,0
19.06.2018 01:00:00 15,1 13,2 13,9 19,8 21,4 16,1 0 0 19 10 N 1023,8 18 0 0,0
19.06.2018 00:00:00 15,3 12,7 14,3 20,4 21,7 16,1 7 4 11 6 SE 1023,4 35 0 0,0
18.06.2018 23:00:00 15,7 13,4 15,0 21,2 21,9 16,1 3 2 10 5 S 1023,1 32 0 0,0
18.06.2018 22:00:00 16,4 14,1 14,5 22,4 22,0 16,1 5 3 7 4 SE 1022,3 23 0 0,0
18.06.2018 21:00:00 18,6 13,4 18,2 23,7 22,0 16,1 7 4 10 5 WSW 1021,3 57 0 0,0
18.06.2018 20:00:00 19,5 13,6 18,9 25,0 21,9 16,1 5 3 7 4 S 1020,8 54 37 0,0
18.06.2018 19:00:00 20,5 10,7 21,2 26,6 21,7 16,1 9 5 14 8 W 1020,6 70 41 0,0
18.06.2018 18:00:00 21,4 10,8 25,6 27,7 21,3 16,1 7 4 14 8 NW 1020,2 60 33 0,0
18.06.2018 17:00:00 20,6 12,0 21,8 29,0 20,8 16,1 9 5 19 11 WSW 1020,5 57 53 0,0
18.06.2018 16:00:00 20,8 11,3 25,2 28,0 20,3 16,1 12 7 24 13 WNW 1020,8 24 55 0,0
18.06.2018 15:00:00 20,2 11,1 25,3 26,5 19,8 16,1 10 5 23 12 NW 1021,2 21 43 0,0
18.06.2018 14:00:00 19,9 12,2 24,7 25,3 19,4 16,1 13 7 20 11 NW 1021,2 24 33 0,0
18.06.2018 13:00:00 18,7 11,8 21,5 24,9 19,0 16,1 10 5 17 9 WNW 1021,9 34 52 0,0
18.06.2018 12:00:00 18,3 11,9 22,5 22,4 18,8 16,1 8 5 18 10 WNW 1021,8 36 27 0,0
18.06.2018 11:00:00 17,4 11,3 19,9 20,8 18,7 16,1 5 3 14 7 WNW 1022,0 38 0 0,0
18.06.2018 10:00:00 16,4 12,2 18,0 19,7 18,6 16,1 6 4 12 7 NW 1022,2 26 2 0,0
18.06.2018 09:00:00 15,7 12,0 16,1 18,6 18,7 16,1 4 2 6 4 NW 1022,4 30 15 0,0
18.06.2018 08:00:00 15,0 13,1 15,2 17,3 18,8 16,1 2 1 6 3 ESE 1022,2 18 0 0,0
18.06.2018 07:00:00 13,8 13,1 13,6 16,9 19,0 16,1 3 2 6 3 NE 1022,2 11 0 0,0
18.06.2018 06:00:00 12,7 12,6 12,3 17,0 19,2 16,1 3 2 4 2 NE 1022,4 6 0 0,0
18.06.2018 05:00:00 13,1 12,4 12,4 17,3 19,4 16,1 3 2 9 5 ENE 1022,0 13 0 0,0
18.06.2018 04:00:00 14,0 12,0 12,9 17,9 19,6 16,1 5 3 12 7 NNW 1021,8 29 0 0,1
18.06.2018 03:00:00 14,4 14,3 14,2 18,1 19,8 16,1 2 1 4 2 SW 1021,5 7 0 0,0
18.06.2018 02:00:00 14,5 14,2 14,0 18,5 20,1 16,1 4 2 9 5 SE 1021,5 7 0 0,0
18.06.2018 01:00:00 14,8 14,5 14,6 18,8 20,3 16,1 6 3 9 5 SSW 1021,4 8 0 0,0
18.06.2018 00:00:00 15,0 14,6 14,8 19,3 20,5 16,1 4 2 7 4 S 1021,1 9 0 0,0
17.06.2018 23:00:00 15,1 14,7 14,7 19,8 20,7 16,1 4 2 5 3 S 1020,7 10 0 0,5
17.06.2018 22:00:00 16,1 13,6 15,2 20,5 20,8 16,1 3 2 9 5 W 1020,0 10 0 0,0
17.06.2018 21:00:00 16,6 13,4 16,2 21,3 21,0 16,1 5 3 19 11 NE 1019,0 37 0 0,0
17.06.2018 20:00:00 17,8 13,1 17,7 22,2 21,0 16,1 13 7 21 11 NW 1018,3 32 0 0,0
17.06.2018 19:00:00 18,0 15,2 18,3 23,3 21,0 16,1 9 5 16 9 S 1017,4 33 2 0,0
17.06.2018 18:00:00 19,1 12,0 20,3 23,9 20,8 16,1 11 6 23 12 WNW 1016,9 47 0 0,0
17.06.2018 17:00:00 20,1 12,6 20,2 25,8 20,4 16,1 14 8 21 11 NW 1016,2 45 9 0,0
17.06.2018 16:00:00 21,6 11,3 25,2 26,5 20,0 16,1 8 4 19 10 NNW 1015,7 51 35 0,0
17.06.2018 15:00:00 20,9 12,8 24,9 25,8 19,6 16,1 14 8 24 13 NW 1016,2 17 35 0,0
17.06.2018 14:00:00 20,1 12,3 22,8 25,3 19,1 16,1 9 5 21 12 NW 1016,6 32 25 0,0
17.06.2018 13:00:00 21,1 13,5 25,8 24,4 18,7 16,1 5 3 18 10 W 1016,7 31 24 0,0
17.06.2018 12:00:00 19,9 12,7 25,1 23,2 18,4 16,1 6 3 14 8 WNW 1017,1 32 42 0,0
17.06.2018 11:00:00 18,4 13,5 20,1 21,5 18,1 16,1 10 5 15 8 WNW 1017,6 21 17 0,0
17.06.2018 10:00:00 18,2 13,2 22,0 19,8 18,0 16,1 6 4 19 10 W 1017,6 22 58 0,0
17.06.2018 09:00:00 17,1 12,8 20,1 17,6 18,1 16,1 15 8 21 11 SW 1017,7 16 60 0,0
17.06.2018 08:00:00 15,2 10,9 16,2 15,6 18,3 16,1 8 4 14 8 W 1017,8 25 37 0,0
17.06.2018 07:00:00 12,4 9,7 11,2 15,1 18,6 16,1 5 3 12 6 S 1018,0 33 32 0,0
17.06.2018 06:00:00 9,9 8,7 8,7 15,2 18,9 16,1 4 2 11 6 SSE 1018,7 16 0 0,0
17.06.2018 05:00:00 11,2 9,6 9,4 15,7 19,2 16,1 5 3 9 5 SSE 1017,5 30 0 0,0
17.06.2018 04:00:00 10,9 9,5 8,5 16,4 19,5 16,1 3 2 10 6 SSW 1017,7 23 0 0,0
17.06.2018 03:00:00 12,4 9,9 11,4 16,7 19,8 16,1 5 3 12 7 S 1017,3 31 0 0,0
17.06.2018 02:00:00 12,2 10,1 9,9 17,2 20,2 16,1 6 3 14 7 S 1017,3 30 0 0,0
17.06.2018 01:00:00 12,6 10,6 10,6 17,9 20,5 16,1 6 3 10 5 SE 1017,3 33 0 0,0
17.06.2018 00:00:00 11,9 10,5 9,8 18,8 20,8 16,1 4 2 8 4 ESE 1017,3 25 0 0,0
16.06.2018 23:00:00 13,4 11,9 10,6 20,0 21,1 16,1 6 3 8 5 SSE 1016,9 27 0 0,0
16.06.2018 22:00:00 15,1 12,2 12,2 21,5 21,2 16,1 5 3 8 4 SSW 1015,8 37 8 0,0
16.06.2018 21:00:00 19,8 10,6 16,5 23,0 21,2 16,1 3 2 8 4 NNE 1013,9 69 59 0,0
16.06.2018 20:00:00 21,5 9,2 21,2 24,4 21,1 16,1 5 3 13 7 NNW 1013,2 69 60 0,0
16.06.2018 19:00:00 22,4 8,7 22,8 25,7 20,8 16,1 5 3 14 8 WNW 1012,9 70 59 0,0
16.06.2018 18:00:00 22,7 7,2 24,1 27,1 20,3 16,1 4 2 15 8 WSW 1012,6 70 60 0,0
16.06.2018 17:00:00 23,0 8,1 26,1 28,2 19,7 16,1 5 3 18 10 E 1012,5 45 60 0,0
16.06.2018 16:00:00 22,8 9,0 26,2 28,0 19,1 16,1 5 3 19 10 W 1012,8 46 60 0,0
16.06.2018 15:00:00 22,4 6,7 26,6 27,3 18,4 16,1 4 2 16 9 E 1013,3 56 60 0,0
16.06.2018 14:00:00 22,2 9,8 27,4 26,2 17,8 16,1 5 3 12 6 NNW 1013,7 53 45 0,0
16.06.2018 13:00:00 20,9 9,0 23,7 24,3 17,3 16,1 10 5 18 10 NE 1014,4 20 57 0,0
16.06.2018 12:00:00 20,7 9,5 25,1 22,7 16,8 16,1 4 2 20 11 N 1014,5 31 60 0,0
16.06.2018 11:00:00 19,3 9,0 22,5 20,4 16,5 16,2 11 6 22 12 ENE 1014,8 20 60 0,0
16.06.2018 10:00:00 18,6 12,2 20,9 18,4 16,3 16,2 8 4 23 12 WNW 1014,8 24 60 0,0
16.06.2018 09:00:00 15,9 10,6 19,2 15,5 16,3 16,2 3 2 11 6 NW 1015,8 28 60 0,0
16.06.2018 08:00:00 13,4 9,4 12,9 13,3 16,5 16,2 2 1 4 2 NNW 1016,3 25 60 0,0
16.06.2018 07:00:00 10,1 8,1 9,7 12,1 16,8 16,2 2 1 4 2 ESE 1017,1 12 60 0,0
16.06.2018 06:00:00 6,3 6,1 4,3 12,1 17,2 16,2 3 1 5 3 SE 1018,3 4,9 7 0,0
16.06.2018 05:00:00 7,2 7,2 3,6 12,6 17,5 16,2 2 1 6 3 E 1018,1 4,9 0 0,0
16.06.2018 04:00:00 7,1 6,6 4,4 13,1 17,9 16,2 0 0 4 2 N 1018,1 5 0 0,0
16.06.2018 03:00:00 8,0 7,9 4,9 13,8 18,2 16,2 2 1 5 3 ESE 1018,1 2,8 0 0,0
16.06.2018 02:00:00 8,2 8,0 5,0 14,5 18,6 16,2 0 0 3 2 N 1018,2 4,8 0 0,0
16.06.2018 01:00:00 8,6 7,9 6,0 15,4 18,9 16,2 2 1 4 2 WNW 1018,5 14 0 0,0
16.06.2018 00:00:00 9,7 9,1 7,0 16,3 19,2 16,2 3 2 5 3 SSW 1018,2 14 0 0,0
15.06.2018 23:00:00 11,1 9,2 8,0 17,4 19,5 16,2 2 1 8 5 NE 1017,9 24 0 0,0
15.06.2018 22:00:00 14,4 9,3 10,6 18,6 19,7 16,2 6 3 12 6 NE 1016,8 37 8 0,0
15.06.2018 21:00:00 16,8 9,5 14,7 19,9 19,8 16,3 7 4 24 13 NE 1015,7 59 46 0,0
15.06.2018 20:00:00 18,7 8,9 18,5 21,5 19,7 16,3 11 6 22 12 NE 1014,8 41 60 0,0
15.06.2018 19:00:00 19,7 9,3 21,1 23,1 19,6 16,3 11 6 24 13 N 1014,2 46 60 0,0
15.06.2018 18:00:00 19,9 9,4 21,9 24,2 19,3 16,3 14 8 27 14 NE 1014,1 27 60 0,0
15.06.2018 17:00:00 20,1 9,7 22,7 24,3 19,0 16,3 12 6 27 14 ENE 1014,3 30 58 0,0
15.06.2018 16:00:00 19,7 9,2 22,8 24,7 18,5 16,3 15 8 29 16 NE 1014,6 30 46 0,0
15.06.2018 15:00:00 19,3 7,1 21,9 25,1 18,0 16,3 7 4 26 14 NNE 1014,8 55 56 0,0
15.06.2018 14:00:00 19,5 9,3 24,4 23,9 17,5 16,3 11 6 26 14 ENE 1014,8 23 45 0,0
15.06.2018 13:00:00 18,5 8,1 21,2 23,6 17,0 16,3 8 4 21 11 E 1015,5 55 56 0,0
15.06.2018 12:00:00 18,4 9,2 22,1 21,7 16,5 16,3 7 4 18 10 NNE 1015,3 53 50 0,0
15.06.2018 11:00:00 17,1 7,9 19,6 19,9 16,2 16,4 11 6 19 11 NE 1015,8 34 60 0,0
15.06.2018 10:00:00 17,4 7,4 20,3 17,6 16,0 16,4 10 5 18 10 E 1015,7 27 60 0,0
15.06.2018 09:00:00 16,1 8,8 17,5 15,7 16,0 16,4 7 4 14 8 NE 1016,1 25 58 0,0
15.06.2018 08:00:00 12,8 10,1 13,3 13,9 16,2 16,4 5 3 6 3 NW 1016,7 20 59 0,0
15.06.2018 07:00:00 9,9 8,5 9,8 12,4 16,4 16,4 0 0 3 2 N 1017,6 9 60 0,0
15.06.2018 06:00:00 6,7 6,7 5,7 12,1 16,7 16,4 0 0 4 2 N 1018,8 4,8 2 0,0
15.06.2018 05:00:00 6,3 6,3 4,6 12,6 17,0 16,4 3 2 5 3 SW 1018,9 6 0 0,0
15.06.2018 04:00:00 7,9 7,9 6,0 13,1 17,4 16,4 5 3 5 3 ESE 1018,5 1,4 0 0,0
15.06.2018 03:00:00 7,5 7,5 4,7 13,6 17,7 16,4 2 1 4 2 WNW 1018,8 3,7 0 0,0
15.06.2018 02:00:00 8,2 8,2 6,2 14,3 18,0 16,5 2 1 4 2 E 1018,6 0,2 0 0,0
15.06.2018 01:00:00 9,4 9,4 7,6 14,8 18,3 16,5 0 0 3 2 N 1018,6 2,7 0 0,0
15.06.2018 00:00:00 8,9 8,9 6,2 15,7 18,6 16,5 4 2 5 3 E 1018,6 0,8 0 0,0
14.06.2018 23:00:00 10,1 9,6 6,7 16,8 18,9 16,5 4 2 7 4 SE 1018,2 10 0 0,0
14.06.2018 22:00:00 10,9 9,7 9,0 18,1 19,0 16,5 6 3 8 4 SSE 1017,4 12 0 0,0
14.06.2018 21:00:00 14,7 10,6 11,8 19,6 19,0 16,5 3 2 10 6 E 1015,6 27 47 0,0
14.06.2018 20:00:00 16,4 9,9 16,8 21,1 18,9 16,6 8 5 14 8 ENE 1014,5 33 56 0,0
14.06.2018 19:00:00 17,6 10,3 19,5 22,4 18,7 16,6 7 4 11 6 ENE 1014,0 30 59 0,0
14.06.2018 18:00:00 18,2 10,5 20,4 22,8 18,4 16,6 6 3 15 8 N 1013,9 28 42 0,0
14.06.2018 17:00:00 16,6 9,3 18,5 23,3 18,0 16,6 9 5 15 8 NNE 1014,5 35 22 0,0
14.06.2018 16:00:00 18,0 9,9 22,9 23,6 17,5 16,6 6 4 19 10 WNW 1014,2 31 37 0,0
14.06.2018 15:00:00 16,8 8,4 22,5 23,7 16,9 16,6 8 4 23 12 NNE 1014,8 22 52 0,0
14.06.2018 14:00:00 16,0 9,1 20,1 22,5 16,5 16,6 11 6 20 11 ENE 1015,2 21 58 0,0
14.06.2018 13:00:00 16,1 8,8 20,1 19,3 16,2 16,6 9 5 18 10 NE 1015,3 28 11 0,0
14.06.2018 12:00:00 14,6 8,6 17,6 18,5 15,8 16,7 11 6 18 10 NE 1016,0 31 11 0,0
14.06.2018 11:00:00 13,4 7,0 15,1 18,4 15,6 16,7 10 6 21 11 ENE 1016,3 41 41 0,0
14.06.2018 10:00:00 13,3 8,6 15,9 15,9 15,5 16,7 13 7 21 11 ENE 1016,4 21 55 0,0
14.06.2018 09:00:00 12,2 8,7 14,7 14,4 15,5 16,7 11 6 20 11 ENE 1016,5 16 60 0,0
14.06.2018 08:00:00 11,3 9,5 12,1 13,1 15,6 16,7 11 6 17 9 NE 1016,6 11 60 0,0
14.06.2018 07:00:00 9,9 8,7 9,8 12,4 15,7 16,7 7 4 11 6 ENE 1017,0 6 56 0,0
14.06.2018 06:00:00 8,3 8,1 5,9 12,8 15,8 16,7 4 2 6 3 NE 1017,3 0,3 0 0,0
14.06.2018 05:00:00 10,0 9,2 9,5 13,3 16,0 16,7 2 1 9 5 ENE 1017,1 9 0 0,0
14.06.2018 04:00:00 10,1 9,2 9,7 13,4 16,1 16,7 6 4 10 5 NE 1017,2 11 0 0,0
14.06.2018 03:00:00 10,0 9,7 9,9 13,6 16,2 16,8 5 3 6 3 E 1017,7 6 0 0,0
14.06.2018 02:00:00 10,1 9,7 10,0 13,7 16,3 16,8 2 1 4 2 E 1017,6 7 0 0,0
14.06.2018 01:00:00 10,1 9,7 10,1 13,9 16,4 16,8 4 2 5 3 SSE 1017,8 8 0 0,0
14.06.2018 00:00:00 10,1 9,7 10,0 14,0 16,5 16,8 2 1 5 3 SSE 1017,8 6 0 0,0
13.06.2018 23:00:00 10,2 9,7 10,1 14,3 16,6 16,8 4 2 7 4 S 1018,0 8 0 0,0
13.06.2018 22:00:00 10,3 9,8 10,2 14,5 16,7 16,8 3 2 5 3 S 1017,5 8 0 0,0

tt = Température de l'air
td = dewpoint
tt 5cm = Température de l'air 5cm
tt -5cm = Température de l'air -5cm
tt -20cm = Température de l'air -20cm
tt -100cm = Température de l'air -100cm
ff = Vitesse du vent
fx = gusts
dd = Direction du vent
ppp = reduced air pressure
vv = visibility
sd = Ensoleillement
rr = Quantités de précipitations

stations d'obs. à proximité